Time,TemperatureF,DewpointF,PressureIn,WindDirection,WindDirectionDegrees,WindSpeedMPH,WindSpeedGustMPH,Humidity,HourlyPrecipIn,Conditions,Clouds,dailyrainin,SoftwareType,DateUTC
2013-07-14 00:01:00,68.0,52.0,30.14,West,265,1.0,7.0,57,0.00,,,0.00,,2013-07-14 06:01:00,
2013-07-14 00:11:00,68.0,53.0,30.14,SW,217,3.0,5.0,58,0.00,,,0.00,,2013-07-14 06:11:00,
2013-07-14 00:22:00,68.0,52.0,30.14,West,270,9.0,15.0,56,0.00,,,0.00,,2013-07-14 06:22:00,
2013-07-14 00:32:00,67.0,52.0,30.15,West,261,16.0,20.0,59,0.00,,,0.00,,2013-07-14 06:32:00,
2013-07-14 00:42:00,66.0,53.0,30.14,West,272,17.0,26.0,62,0.00,,,0.00,,2013-07-14 06:42:00,
2013-07-14 00:53:00,65.0,53.0,30.14,West,276,19.0,26.0,64,0.00,,,0.00,,2013-07-14 06:53:00,
2013-07-14 01:02:00,64.0,53.0,30.15,West,280,18.0,27.0,68,0.00,,,0.00,,2013-07-14 07:02:00,
2013-07-14 01:12:00,64.0,54.0,30.15,West,281,17.0,26.0,70,0.00,,,0.00,,2013-07-14 07:12:00,
2013-07-14 01:22:00,64.0,54.0,30.15,West,273,16.0,26.0,69,0.00,,,0.00,,2013-07-14 07:22:00,
2013-07-14 01:33:00,64.0,54.0,30.15,West,277,20.0,26.0,69,0.00,,,0.00,,2013-07-14 07:33:00,
2013-07-14 01:43:00,63.0,53.0,30.15,WNW,290,18.0,25.0,70,0.00,,,0.00,,2013-07-14 07:43:00,
2013-07-14 01:53:00,63.0,53.0,30.15,West,279,21.0,26.0,69,0.00,,,0.00,,2013-07-14 07:53:00,
2013-07-14 02:01:00,63.0,53.0,30.15,West,281,15.0,28.0,70,0.00,,,0.00,,2013-07-14 08:01:00,
2013-07-14 02:11:00,62.0,52.0,30.15,WNW,285,19.0,27.0,71,0.00,,,0.00,,2013-07-14 08:11:00,
2013-07-14 02:22:00,62.0,53.0,30.16,West,273,18.0,24.0,72,0.00,,,0.00,,2013-07-14 08:22:00,
2013-07-14 02:32:00,61.0,52.0,30.15,WNW,286,21.0,25.0,73,0.00,,,0.00,,2013-07-14 08:32:00,
2013-07-14 02:42:00,61.0,53.0,30.15,WNW,285,21.0,27.0,75,0.00,,,0.00,,2013-07-14 08:42:00,
2013-07-14 02:53:00,61.0,53.0,30.16,WNW,291,20.0,26.0,74,0.00,,,0.00,,2013-07-14 08:53:00,
2013-07-14 03:01:00,60.0,52.0,30.16,WNW,282,20.0,26.0,74,0.00,,,0.00,,2013-07-14 09:01:00,
2013-07-14 03:11:00,61.0,52.0,30.16,WNW,282,21.0,26.0,73,0.00,,,0.00,,2013-07-14 09:11:00,
2013-07-14 03:22:00,61.0,52.0,30.16,WNW,285,19.0,27.0,71,0.00,,,0.00,,2013-07-14 09:22:00,
2013-07-14 03:32:00,60.0,51.0,30.16,West,281,21.0,27.0,72,0.00,,,0.00,,2013-07-14 09:32:00,
2013-07-14 03:42:00,59.0,51.0,30.16,West,281,18.0,26.0,74,0.00,,,0.00,,2013-07-14 09:42:00,
2013-07-14 03:52:00,59.0,51.0,30.17,WNW,288,18.0,25.0,75,0.00,,,0.00,,2013-07-14 09:52:00,
2013-07-14 04:01:00,58.0,50.0,30.16,WNW,283,17.0,23.0,76,0.00,,,0.00,,2013-07-14 10:01:00,
2013-07-14 04:11:00,58.0,50.0,30.17,West,279,17.0,24.0,76,0.00,,,0.00,,2013-07-14 10:11:00,
2013-07-14 04:21:00,58.0,50.0,30.18,WNW,288,19.0,25.0,76,0.00,,,0.00,,2013-07-14 10:21:00,
2013-07-14 04:32:00,58.0,50.0,30.18,WNW,295,16.0,22.0,76,0.00,,,0.00,,2013-07-14 10:32:00,
2013-07-14 04:42:00,58.0,50.0,30.19,WNW,300,15.0,20.0,76,0.00,,,0.00,,2013-07-14 10:42:00,
2013-07-14 04:53:00,58.0,50.0,30.19,WNW,299,11.0,20.0,76,0.00,,,0.00,,2013-07-14 10:53:00,
2013-07-14 05:01:00,57.0,50.0,30.20,WNW,297,15.0,21.0,77,0.00,,,0.00,,2013-07-14 11:01:00,
2013-07-14 05:11:00,57.0,50.0,30.20,West,281,14.0,21.0,77,0.00,,,0.00,,2013-07-14 11:11:00,
2013-07-14 05:22:00,57.0,50.0,30.21,WNW,285,14.0,22.0,78,0.00,,,0.00,,2013-07-14 11:22:00,
2013-07-14 05:32:00,57.0,51.0,30.21,WNW,298,13.0,20.0,79,0.00,,,0.00,,2013-07-14 11:32:00,
2013-07-14 05:43:00,57.0,50.0,30.21,WNW,288,13.0,18.0,78,0.00,,,0.00,,2013-07-14 11:43:00,
2013-07-14 05:53:00,57.0,51.0,30.21,WNW,288,15.0,20.0,79,0.00,,,0.00,,2013-07-14 11:53:00,
2013-07-14 06:02:00,56.0,50.0,30.22,NW,312,11.0,16.0,79,0.00,,,0.00,,2013-07-14 12:02:00,
2013-07-14 06:11:00,56.0,50.0,30.22,WNW,292,13.0,18.0,80,0.00,,,0.00,,2013-07-14 12:11:00,
2013-07-14 06:22:00,56.0,50.0,30.22,NW,309,11.0,16.0,81,0.00,,,0.00,,2013-07-14 12:22:00,
2013-07-14 06:32:00,55.0,49.0,30.22,NW,316,9.0,13.0,81,0.00,,,0.00,,2013-07-14 12:32:00,
2013-07-14 06:52:00,56.0,50.0,30.23,NNW,336,8.0,11.0,81,0.00,,,0.00,,2013-07-14 12:52:00,
2013-07-14 07:01:00,56.0,50.0,30.23,NNW,330,8.0,11.0,81,0.00,,,0.00,,2013-07-14 13:01:00,
2013-07-14 07:11:00,57.0,51.0,30.24,NW,317,9.0,11.0,80,0.00,,,0.00,,2013-07-14 13:11:00,
2013-07-14 07:22:00,58.0,51.0,30.23,NW,310,11.0,14.0,77,0.00,,,0.00,,2013-07-14 13:22:00,
2013-07-14 07:32:00,58.0,51.0,30.24,WNW,298,11.0,16.0,77,0.00,,,0.00,,2013-07-14 13:32:00,
2013-07-14 07:42:00,59.0,51.0,30.24,NW,309,11.0,16.0,76,0.00,,,0.00,,2013-07-14 13:42:00,
2013-07-14 07:53:00,59.0,51.0,30.24,NW,320,9.0,12.0,75,0.00,,,0.00,,2013-07-14 13:53:00,
2013-07-14 08:01:00,60.0,52.0,30.24,North,355,6.0,10.0,76,0.00,,,0.00,,2013-07-14 14:01:00,
2013-07-14 08:11:00,60.0,52.0,30.24,North,355,8.0,10.0,75,0.00,,,0.00,,2013-07-14 14:11:00,
2013-07-14 08:23:00,61.0,53.0,30.25,North,5,7.0,10.0,74,0.00,,,0.00,,2013-07-14 14:23:00,
2013-07-14 08:33:00,62.0,52.0,30.25,North,355,7.0,9.0,71,0.00,,,0.00,,2013-07-14 14:33:00,
2013-07-14 08:43:00,63.0,53.0,30.25,NNW,346,5.0,9.0,69,0.00,,,0.00,,2013-07-14 14:43:00,
2013-07-14 08:53:00,63.0,53.0,30.25,NNW,341,3.0,7.0,69,0.00,,,0.00,,2013-07-14 14:53:00,
2013-07-14 09:01:00,64.0,53.0,30.24,ENE,57,0.0,5.0,67,0.00,,,0.00,,2013-07-14 15:01:00,
2013-07-14 09:12:00,65.0,53.0,30.24,ENE,76,0.0,0.0,66,0.00,,,0.00,,2013-07-14 15:12:00,
2013-07-14 09:22:00,66.0,53.0,30.24,East,84,0.0,0.0,64,0.00,,,0.00,,2013-07-14 15:22:00,
2013-07-14 09:32:00,67.0,54.0,30.24,SE,124,1.0,6.0,64,0.00,,,0.00,,2013-07-14 15:32:00,
2013-07-14 09:42:00,67.0,54.0,30.24,SSE,150,4.0,7.0,63,0.00,,,0.00,,2013-07-14 15:42:00,
2013-07-14 09:53:00,68.0,54.0,30.23,SE,129,7.0,10.0,61,0.00,,,0.00,,2013-07-14 15:53:00,
2013-07-14 10:01:00,68.0,54.0,30.24,SSE,152,5.0,11.0,61,0.00,,,0.00,,2013-07-14 16:01:00,
2013-07-14 10:11:00,68.0,54.0,30.24,SE,144,6.0,10.0,61,0.00,,,0.00,,2013-07-14 16:11:00,
2013-07-14 10:22:00,68.0,54.0,30.23,SE,130,4.0,11.0,62,0.00,,,0.00,,2013-07-14 16:22:00,
2013-07-14 10:32:00,69.0,55.0,30.23,SE,142,6.0,10.0,60,0.00,,,0.00,,2013-07-14 16:32:00,
2013-07-14 10:43:00,69.0,54.0,30.23,SE,125,3.0,10.0,59,0.00,,,0.00,,2013-07-14 16:43:00,
2013-07-14 10:53:00,70.0,55.0,30.22,SE,140,6.0,10.0,59,0.00,,,0.00,,2013-07-14 16:53:00,
2013-07-14 11:02:00,70.0,55.0,30.22,SE,128,7.0,12.0,59,0.00,,,0.00,,2013-07-14 17:02:00,
2013-07-14 11:11:00,70.0,55.0,30.21,ESE,123,7.0,12.0,58,0.00,,,0.00,,2013-07-14 17:11:00,
2013-07-14 11:22:00,71.0,54.0,30.21,SE,125,6.0,11.0,56,0.00,,,0.00,,2013-07-14 17:22:00,
2013-07-14 11:32:00,71.0,54.0,30.21,ESE,114,7.0,10.0,56,0.00,,,0.00,,2013-07-14 17:32:00,
2013-07-14 11:43:00,71.0,54.0,30.21,ESE,113,8.0,13.0,56,0.00,,,0.00,,2013-07-14 17:43:00,
2013-07-14 11:53:00,72.0,55.0,30.20,SSE,148,5.0,13.0,56,0.00,,,0.00,,2013-07-14 17:53:00,
2013-07-14 12:01:00,72.0,54.0,30.21,SSE,148,7.0,12.0,53,0.00,,,0.00,,2013-07-14 18:01:00,
2013-07-14 12:11:00,73.0,55.0,30.21,SSE,163,6.0,9.0,53,0.00,,,0.00,,2013-07-14 18:11:00,
2013-07-14 12:21:00,74.0,55.0,30.20,SSE,159,4.0,10.0,51,0.00,,,0.00,,2013-07-14 18:21:00,
2013-07-14 12:32:00,74.0,54.0,30.19,ESE,108,6.0,11.0,50,0.00,,,0.00,,2013-07-14 18:32:00,
2013-07-14 12:42:00,74.0,54.0,30.19,SE,124,7.0,12.0,50,0.00,,,0.00,,2013-07-14 18:42:00,
2013-07-14 12:52:00,75.0,55.0,30.19,SSE,153,8.0,13.0,49,0.00,,,0.00,,2013-07-14 18:52:00,
2013-07-14 13:01:00,76.0,57.0,30.18,ESE,106,6.0,19.0,51,0.00,,,0.00,,2013-07-14 19:01:00,
2013-07-14 13:11:00,76.0,56.0,30.18,East,99,9.0,12.0,50,0.00,,,0.00,,2013-07-14 19:11:00,
2013-07-14 13:22:00,76.0,55.0,30.17,SSE,148,4.0,11.0,48,0.00,,,0.00,,2013-07-14 19:22:00,
2013-07-14 13:32:00,77.0,56.0,30.16,ESE,106,6.0,13.0,49,0.00,,,0.00,,2013-07-14 19:32:00,
2013-07-14 13:43:00,78.0,54.0,30.16,SE,125,5.0,11.0,44,0.00,,,0.00,,2013-07-14 19:43:00,
2013-07-14 13:52:00,78.0,55.0,30.15,SSE,162,7.0,12.0,45,0.00,,,0.00,,2013-07-14 19:52:00,
2013-07-14 14:01:00,79.0,56.0,30.14,ESE,112,2.0,11.0,45,0.00,,,0.00,,2013-07-14 20:01:00,
2013-07-14 14:11:00,79.0,55.0,30.14,ESE,117,5.0,12.0,44,0.00,,,0.00,,2013-07-14 20:11:00,
2013-07-14 14:22:00,80.0,55.0,30.14,South,190,8.0,11.0,42,0.00,,,0.00,,2013-07-14 20:22:00,
2013-07-14 14:32:00,80.0,53.0,30.14,SSE,159,7.0,11.0,40,0.00,,,0.00,,2013-07-14 20:32:00,
2013-07-14 14:43:00,81.0,54.0,30.14,SSE,150,5.0,12.0,40,0.00,,,0.00,,2013-07-14 20:43:00,
2013-07-14 14:53:00,81.0,54.0,30.14,SE,126,5.0,10.0,40,0.00,,,0.00,,2013-07-14 20:53:00,
2013-07-14 15:01:00,81.0,54.0,30.13,East,84,4.0,8.0,39,0.00,,,0.00,,2013-07-14 21:01:00,
2013-07-14 15:11:00,82.0,52.0,30.13,South,176,0.0,8.0,36,0.00,,,0.00,,2013-07-14 21:11:00,
2013-07-14 15:22:00,81.0,52.0,30.13,ESE,121,0.0,9.0,37,0.00,,,0.00,,2013-07-14 21:22:00,
2013-07-14 15:32:00,82.0,54.0,30.12,SE,126,3.0,6.0,38,0.00,,,0.00,,2013-07-14 21:32:00,
2013-07-14 15:43:00,82.0,52.0,30.11,ESE,107,4.0,8.0,35,0.00,,,0.00,,2013-07-14 21:43:00,
2013-07-14 15:52:00,82.0,52.0,30.11,ESE,109,6.0,8.0,36,0.00,,,0.00,,2013-07-14 21:52:00,
2013-07-14 16:01:00,82.0,52.0,30.11,SE,134,6.0,9.0,35,0.00,,,0.00,,2013-07-14 22:01:00,
2013-07-14 16:11:00,82.0,49.0,30.11,SSW,193,3.0,9.0,32,0.00,,,0.00,,2013-07-14 22:11:00,
2013-07-14 16:22:00,82.0,55.0,30.10,SSE,162,0.0,0.0,40,0.00,,,0.00,,2013-07-14 22:22:00,
2013-07-14 16:32:00,82.0,52.0,30.10,SSE,162,0.0,0.0,36,0.00,,,0.00,,2013-07-14 22:32:00,
2013-07-14 16:42:00,82.0,52.0,30.11,SSE,148,0.0,1.0,35,0.00,,,0.00,,2013-07-14 22:42:00,
2013-07-14 16:53:00,81.0,54.0,30.11,SSE,148,0.0,1.0,40,0.00,,,0.00,,2013-07-14 22:53:00,
2013-07-14 17:01:00,81.0,52.0,30.11,SSE,156,4.0,7.0,36,0.00,,,0.00,,2013-07-14 23:01:00,
2013-07-14 17:11:00,82.0,50.0,30.11,SSE,156,0.0,0.0,33,0.00,,,0.00,,2013-07-14 23:11:00,
2013-07-14 17:22:00,79.0,50.0,30.10,NNW,329,15.0,20.0,36,0.00,,,0.00,,2013-07-14 23:22:00,
2013-07-14 17:32:00,80.0,51.0,30.10,NNW,345,7.0,18.0,37,0.00,,,0.00,,2013-07-14 23:32:00,
2013-07-14 17:42:00,82.0,50.0,30.09,NNE,24,3.0,8.0,33,0.00,,,0.00,,2013-07-14 23:42:00,
2013-07-14 17:53:00,82.0,51.0,30.08,ENE,71,4.0,9.0,34,0.00,,,0.00,,2013-07-14 23:53:00,
2013-07-14 18:02:00,82.0,50.0,30.07,ENE,67,8.0,13.0,33,0.00,,,0.00,,2013-07-15 00:02:00,
2013-07-14 18:11:00,82.0,49.0,30.07,ENE,73,1.0,7.0,32,0.00,,,0.00,,2013-07-15 00:11:00,
2013-07-14 18:22:00,83.0,49.0,30.06,East,101,0.0,10.0,31,0.00,,,0.00,,2013-07-15 00:22:00,
2013-07-14 18:32:00,85.0,46.0,30.06,SE,130,1.0,6.0,26,0.00,,,0.00,,2013-07-15 00:32:00,
2013-07-14 18:43:00,85.0,47.0,30.06,SE,129,1.0,2.0,27,0.00,,,0.00,,2013-07-15 00:43:00,
2013-07-14 18:53:00,85.0,46.0,30.06,SSE,150,6.0,9.0,26,0.00,,,0.00,,2013-07-15 00:53:00,
2013-07-14 19:01:00,85.0,49.0,30.06,SE,136,5.0,15.0,29,0.00,,,0.00,,2013-07-15 01:01:00,
2013-07-14 19:11:00,83.0,50.0,30.05,SE,131,4.0,10.0,32,0.00,,,0.00,,2013-07-15 01:11:00,
2013-07-14 19:22:00,83.0,52.0,30.05,SE,135,0.0,9.0,34,0.00,,,0.00,,2013-07-15 01:22:00,
2013-07-14 19:32:00,83.0,52.0,30.05,SSE,152,1.0,4.0,34,0.00,,,0.00,,2013-07-15 01:32:00,
2013-07-14 19:43:00,83.0,49.0,30.05,SSE,147,1.0,6.0,31,0.00,,,0.00,,2013-07-15 01:43:00,
2013-07-14 19:53:00,84.0,48.0,30.06,SSE,157,0.0,4.0,29,0.00,,,0.00,,2013-07-15 01:53:00,
2013-07-14 20:02:00,84.0,47.0,30.06,SSE,155,0.0,2.0,28,0.00,,,0.00,,2013-07-15 02:02:00,
2013-07-14 20:11:00,85.0,50.0,30.06,SSE,155,0.0,0.0,30,0.00,,,0.00,,2013-07-15 02:11:00,
2013-07-14 20:22:00,84.0,48.0,30.06,SSE,155,0.0,5.0,29,0.00,,,0.00,,2013-07-15 02:22:00,
2013-07-14 20:32:00,82.0,52.0,30.06,SE,139,0.0,4.0,35,0.00,,,0.00,,2013-07-15 02:32:00,
2013-07-14 20:42:00,81.0,50.0,30.06,SE,139,0.0,1.0,34,0.00,,,0.00,,2013-07-15 02:42:00,
2013-07-14 20:53:00,80.0,48.0,30.06,ESE,112,0.0,0.0,33,0.00,,,0.00,,2013-07-15 02:53:00,
2013-07-14 21:02:00,80.0,47.0,30.06,ESE,112,0.0,0.0,32,0.00,,,0.00,,2013-07-15 03:02:00,
2013-07-14 21:11:00,79.0,48.0,30.06,ESE,112,0.0,0.0,34,0.00,,,0.00,,2013-07-15 03:11:00,
2013-07-14 21:21:00,78.0,47.0,30.06,ESE,112,0.0,0.0,34,0.00,,,0.00,,2013-07-15 03:21:00,
2013-07-14 21:32:00,76.0,47.0,30.06,ESE,112,0.0,0.0,36,0.00,,,0.00,,2013-07-15 03:32:00,
2013-07-14 21:43:00,75.0,47.0,30.06,ESE,112,1.0,4.0,37,0.00,,,0.00,,2013-07-15 03:43:00,
2013-07-14 21:53:00,74.0,49.0,30.06,NNW,340,0.0,5.0,42,0.00,,,0.00,,2013-07-15 03:53:00,
2013-07-14 22:01:00,73.0,49.0,30.07,NNW,335,6.0,9.0,42,0.00,,,0.00,,2013-07-15 04:01:00,
2013-07-14 22:11:00,73.0,49.0,30.07,NNW,327,8.0,9.0,42,0.00,,,0.00,,2013-07-15 04:11:00,
2013-07-14 22:22:00,72.0,49.0,30.07,NNW,341,6.0,9.0,45,0.00,,,0.00,,2013-07-15 04:22:00,
2013-07-14 22:32:00,71.0,49.0,30.07,NNW,333,8.0,9.0,45,0.00,,,0.00,,2013-07-15 04:32:00,
2013-07-14 22:42:00,71.0,49.0,30.07,NNW,340,6.0,8.0,46,0.00,,,0.00,,2013-07-15 04:42:00,
2013-07-14 22:53:00,69.0,49.0,30.07,North,349,6.0,7.0,49,0.00,,,0.00,,2013-07-15 04:53:00,
2013-07-14 23:02:00,67.0,49.0,30.08,North,349,0.0,6.0,53,0.00,,,0.00,,2013-07-15 05:02:00,
2013-07-14 23:21:00,66.0,49.0,30.08,NNW,347,3.0,6.0,55,0.00,,,0.00,,2013-07-15 05:21:00,
2013-07-14 23:43:00,65.0,49.0,30.09,North,349,6.0,9.0,57,0.00,,,0.00,,2013-07-15 05:43:00,
2013-07-14 23:53:00,63.0,48.0,30.09,North,350,0.0,7.0,58,0.00,,,0.00,,2013-07-15 05:53:00,